EW4214 Weather Reports


Display with metric or nautical units.
time (UTC)temp
F
wind
direction
speed
MPH
gust
MPH
rain 1hr
in
rain 24hr
in
rain mn
in
humidity
%
barometer
mb
20260506051125 93 168 1.0 3.0 0.00 0.00 0.00 38 1008.5
20260506050859 93 198 1.0 4.0 0.00 0.00 0.00 38 1008.7
20260506044559 93 165 0.0 3.0 0.00 0.00 0.00 37 1008.9
20260506043557 93 179 0.0 3.0 0.00 0.00 0.00 38 1009.0
20260506042554 92 172 1.0 4.0 0.00 0.00 0.00 39 1009.2
20260506042101 91 161 0.0 2.0 0.00 0.00 0.00 40 1009.3
20260506040555 93 218 1.0 2.0 0.00 0.00 0.00 38 1009.4
20260506040101 92 129 1.0 3.0 0.00 0.00 0.00 40 1009.5
20260506034545 93 171 0.0 6.0 0.00 0.00 0.00 40 1009.4
20260506033539 92 114 2.0 4.0 0.00 0.00 0.00 41 1009.5
20260506032539 91 185 0.0 3.0 0.00 0.00 0.00 42 1009.7
20260506031534 89 177 1.0 3.0 0.00 0.00 0.00 44 1009.8
20260506030529 87 128 0.0 6.0 0.00 0.00 0.00 46 1009.9
20260506025528 87 180 0.0 3.0 0.00 0.00 0.00 46 1010.1
20260506024524 87 181 0.0 2.0 0.00 0.00 0.00 46 1010.1
20260506023518 86 169 0.0 3.0 0.00 0.00 0.00 47 1010.1
20260506022518 86 158 0.0 3.0 0.00 0.00 0.00 48 1010.3
20260506021513 86 170 0.0 6.0 0.00 0.00 0.00 48 1010.2
20260506021017 85 166 0.0 4.0 0.00 0.00 0.00 49 1010.1
20260506015507 84 192 1.0 3.0 0.00 0.00 0.00 49 1010.1
20260506014500 84 159 0.0 2.0 0.00 0.00 0.00 50 1010.0
20260506013457 83 117 2.0 3.0 0.00 0.00 0.00 50 1010.1
20260506012508 83 165 0.0 2.0 0.00 0.00 0.00 50 1010.0
20260506011956 83 156 1.0 2.0 0.00 0.00 0.00 50 1009.9
20260506010444 82 182 0.0 1.0 0.00 0.00 0.00 51 1009.9
20260506005443 81 175 0.0 3.0 0.00 0.00 0.00 52 1009.7
20260506004437 81 188 0.0 0.0 0.00 0.00 0.00 52 1009.7
20260506003432 80 187 0.0 1.0 0.00 0.00 0.00 53 1009.5
20260506002436 80 172 0.0 2.0 0.00 0.00 0.00 54 1009.5
20260506001433 80 175 0.0 1.0 0.00 0.00 0.00 54 1009.5
20260506000433 79 168 0.0 1.0 0.00 0.00 0.00 55 1009.4
20260505235425 78 184 0.0 0.0 0.00 0.00 0.00 56 1009.2
20260505234418 78 155 0.0 0.0 0.00 0.00 0.00 56 1009.1
20260505233419 78 178 0.0 0.0 0.00 0.00 0.00 56 1008.8
20260505232417 77 178 0.0 0.0 0.00 0.00 0.00 57 1008.8
20260505231915 77 178 0.0 0.0 0.00 0.00 0.00 56 1008.8
20260505230421 77 176 0.0 0.0 0.00 0.00 0.00 57 1008.8
20260505225407 77 173 0.0 0.0 0.00 0.00 0.00 58 1008.7
20260505224408 77 173 0.0 0.0 0.00 0.00 0.00 58 1008.4
20260505223406 77 173 0.0 0.0 0.00 0.00 0.00 58 1008.5
20260505222409 77 172 0.0 0.0 0.00 0.00 0.00 58 1008.4
20260505222345 77 172 0.0 0.0 0.00 0.00 0.00 58 1008.3
20260505220408 77 174 0.0 0.0 0.00 0.00 0.00 58 1008.3
20260505215409 78 174 0.0 0.0 0.00 0.00 0.00 58 1008.3
20260505214408 78 174 0.0 0.0 0.00 0.00 0.00 58 1008.2
20260505213841 78 174 0.0 0.0 0.00 0.00 0.00 58 1008.1
20260505212408 78 173 0.0 0.0 0.00 0.00 0.00 58 1008.1
20260505211409 78 172 0.0 0.0 0.00 0.00 0.00 58 1008.0
20260505210408 78 177 0.0 0.0 0.00 0.00 0.00 58 1007.9
20260505205409 78 177 0.0 0.0 0.00 0.00 0.00 58 1007.9
20260505204409 78 177 0.0 0.0 0.00 0.00 0.00 58 1007.9
20260505203408 78 177 0.0 0.0 0.00 0.00 0.00 57 1007.7
20260505202413 78 177 0.0 0.0 0.00 0.00 0.00 57 1007.8
20260505201408 79 176 0.0 1.0 0.00 0.00 0.00 56 1007.7
20260505200408 79 182 0.0 0.0 0.00 0.00 0.00 56 1007.7
20260505195408 79 182 0.0 0.0 0.00 0.00 0.00 56 1007.8
20260505194415 79 171 0.0 0.0 0.00 0.00 0.00 56 1007.9
20260505193409 79 171 0.0 0.0 0.00 0.00 0.00 56 1007.8
20260505192856 79 171 0.0 0.0 0.00 0.00 0.00 55 1007.8
20260505191811 79 171 0.0 0.0 0.00 0.00 0.00 55 1007.8
20260505191550 79 171 0.0 0.0 0.00 0.00 0.00 55 1007.9
20260505185409 79 171 0.0 0.0 0.00 0.00 0.00 54 1007.9
20260505184408 79 171 0.0 0.0 0.00 0.00 0.00 54 1008.0
20260505183410 79 184 0.0 0.0 0.00 0.00 0.00 54 1007.9
20260505182402 79 184 0.0 0.0 0.00 0.00 0.00 54 1008.0
20260505181400 80 171 0.0 0.0 0.00 0.00 0.00 53 1008.1
20260505180358 79 171 0.0 0.0 0.00 0.00 0.00 53 1008.2
20260505175356 79 186 0.0 0.0 0.00 0.00 0.00 54 1008.4
20260505174826 79 201 0.0 0.0 0.00 0.00 0.00 54 1008.4
20260505173812 79 186 0.0 0.0 0.00 0.00 0.00 53 1008.6
20260505172813 79 186 0.0 0.0 0.00 0.00 0.00 53 1008.7
20260505171333 79 201 0.0 1.0 0.00 0.00 0.00 53 1008.9
20260505170334 79 196 0.0 3.0 0.00 0.00 0.00 53 1009.1
20260505165333 79 190 0.0 2.0 0.00 0.00 0.00 53 1009.3
20260505164334 79 188 0.0 2.0 0.00 0.00 0.00 53 1009.5
20260505163333 79 185 1.0 2.0 0.00 0.00 0.00 53 1009.7
20260505162333 79 195 0.0 0.0 0.00 0.00 0.00 52 1009.6
20260505161332 80 195 0.0 1.0 0.00 0.00 0.00 52 1009.8
20260505160333 80 198 0.0 0.0 0.00 0.00 0.00 50 1010.0
20260505153334 80 198 0.0 1.0 0.00 0.00 0.00 49 1009.9
20260505152332 80 186 0.0 0.0 0.00 0.00 0.00 50 1009.9
20260505151332 81 186 0.0 0.0 0.00 0.00 0.00 49 1010.0
20260505150332 81 190 0.0 0.0 0.00 0.00 0.00 49 1009.8
20260505140333 81 192 0.0 2.0 0.00 0.00 0.00 47 1008.8
20260505124906 80 194 0.0 2.0 0.00 0.00 0.00 53 1008.1
20260505123905 80 193 0.0 2.0 0.00 0.00 0.00 53 1008.0
20260505123349 81 209 0.0 2.0 0.00 0.00 0.00 48 1007.6
20260505121904 81 179 0.0 0.0 0.00 0.00 0.00 48 1007.6
20260505120904 82 179 0.0 0.0 0.00 0.00 0.00 45 1007.2
20260505115904 82 179 0.0 1.0 0.00 0.00 0.00 46 1007.0
20260505114903 83 162 0.0 2.0 0.00 0.00 0.00 44 1006.9
20260505113905 82 168 0.0 1.0 0.00 0.00 0.00 46 1006.7
20260505113355 83 167 0.0 1.0 0.00 0.00 0.00 44 1006.5
20260505111901 83 163 0.0 2.0 0.00 0.00 0.00 46 1006.4
20260505110902 85 168 0.0 2.0 0.00 0.00 0.00 43 1006.3
20260505110344 87 152 2.0 4.0 0.00 0.00 0.00 38 1006.1
20260505101028 88 134 1.0 3.0 0.00 0.00 0.00 38 1005.8
20260505100027 89 181 0.0 2.0 0.00 0.00 0.00 37 1005.7
20260505095025 90 178 1.0 3.0 0.00 0.00 0.00 34 1005.6
20260505094532 90 169 1.0 3.0 0.00 0.00 0.00 37 1005.6
20260505094319 92 158 1.0 4.0 0.00 0.00 0.00 33 1005.7
20260505093316 90 182 0.0 6.0 0.00 0.00 0.00 36 1005.6
20260505091007 91 249 1.0 3.0 0.00 0.00 0.00 34 1005.7
20260505090006 92 189 0.0 4.0 0.00 0.00 0.00 34 1006.0
20260505085512 92 173 0.0 7.0 0.00 0.00 0.00 33 1006.1
20260505084000 93 63 2.0 2.0 0.00 0.00 0.00 33 1006.5
20260505082953 94 182 0.0 3.0 0.00 0.00 0.00 31 1006.6
20260505081952 94 142 2.0 3.0 0.00 0.00 0.00 33 1006.4
20260505080951 94 204 0.0 3.0 0.00 0.00 0.00 32 1006.5
20260505075948 93 130 1.0 4.0 0.00 0.00 0.00 33 1006.7
20260505075452 93 236 1.0 3.0 0.00 0.00 0.00 32 1006.7
20260505073941 92 137 0.0 4.0 0.00 0.00 0.00 34 1006.9
20260505072935 92 192 0.0 2.0 0.00 0.00 0.00 33 1007.1
20260505071930 92 227 2.0 3.0 0.00 0.00 0.00 33 1007.3
20260505070926 93 136 2.0 3.0 0.00 0.00 0.00 33 1007.6
20260505065922 93 165 0.0 3.0 0.00 0.00 0.00 32 1007.7
20260505064919 93 104 2.0 4.0 0.00 0.00 0.00 32 1008.0
20260505063911 94 138 2.0 4.0 0.00 0.00 0.00 32 1008.3
20260505062908 93 191 2.0 4.0 0.00 0.00 0.00 33 1008.6
20260505061908 92 120 2.0 7.0 0.00 0.00 0.00 34 1008.8
20260505061359 92 176 0.0 6.0 0.00 0.00 0.00 33 1009.0
20260505060357 91 248 2.0 6.0 0.00 0.00 0.00 35 1009.3